Regional Weather Roundup
Issued by NWS Wakefield, VA

Home | Current Version | Previous Version | Text Only | Print | Product List | Glossary On
Versions: 1 2 3 4 5 6 7 8 9 10 11 12 13 14 15 16 17 18 19 20 21 22 23 24 25 26 27 28 29 30 31 32 33 34 35 36 37 38 39 40 41 42 43 44 45 46 47 48 49 50
000
ASUS41 KAKQ 211910
RWRAKQ

REGIONAL WEATHER ROUNDUP
NATIONAL WEATHER SERVICE WAKEFIELD VA
300 PM EDT THU AUG 21 2014

Note: "fair" indicates few or no clouds below 12,000 feet with no
significant weather and/or obstructions to visibility. * = Denotes
station may not report precipitation (e.g., rain,snow,etc.),
thunder or fog.

VAZ042-051-052>054-056-212000-
NORTHERN VIRGINIA

CITY           SKY/WX    TMP DP  RH WIND       PRES   REMARKS
WASH NATIONAL  PTSUNNY   88  69  53 SE3       30.00F
DULLES         PTSUNNY   84  71  65 S6        30.01F
FORT BELVOIR   MOSUNNY   89  66  46 SW5       30.01F
QUANTICO       PTSUNNY   84  72  67 S6        30.02F
FREDERICKSBRG* PTSUNNY   88  69  53 CALM      30.01F
STAFFORD*      PTSUNNY   86  69  57 W3        30.06F
WARRENTON      PTSUNNY   85  77  78 W5        30.02F HX  95
CULPEPER*      PTSUNNY  N/A N/A N/A SW6       30.03S
MANASSAS*      MOSUNNY   86  70  58 S5        30.02F
LEESBURG*      PTSUNNY   88  72  58 SW7       30.01F
WINCHESTER     PTSUNNY   84  68  58 SW5       30.02F
$$

VAZ048-049-060>072-079>083-212000-
CENTRAL AND SOUTH CENTRAL VIRGINIA...AND NORTH CENTRAL NORTH CAROLINA

CITY           SKY/WX    TMP DP  RH WIND       PRES   REMARKS
RICHMOND       CLOUDY    89  69  51 CALM      30.01F
CHESTERFIELD*  MOCLDY    88  64  45 SW7       30.04F
HANOVER        PTSUNNY   88  69  53 NW6       30.03F
TAPPAHANNOCK*  CLOUDY    88  67  50 S3        30.02F
CHARLOTTSVILLE CLOUDY    84  68  58 S6        30.05S
ORANGE*        CLOUDY    84  66  54 S5        30.05F
LOUISA*        CLOUDY    84  70  61 CALM      30.03F
FARMVILLE*     CLOUDY    88  66  48 CALM      30.03S
SOUTH HILL*    PTSUNNY   91  73  55 SW3       30.09S HX 100
ROANOKE RAPIDS MOCLDY    88  72  58 NW3       30.03F
RALEIGH        PTSUNNY   90  71  53 W6        30.06F HX  96
$$

VAZ088>098-212000-
SOUTHEAST VIRGINIA

CITY           SKY/WX    TMP DP  RH WIND       PRES   REMARKS
NORFOLK        MOSUNNY   85  73  67 NE7       30.01F
VIRGINIA BEACH PTSUNNY   89  68  49 N7        30.00F
NORFOLK NAVAL  PTSUNNY   88  74  63 N8        30.02F HX  96
WEST POINT*    PTSUNNY   90  68  48 CALM      30.03F
NEWPORT NEWS   MOSUNNY   90  69  50 N6        30.01F
LANGLEY AFB    MOSUNNY   87  72  61 E5        30.01F
FORT EUSTIS    PTSUNNY   88  69  53 NW3       30.00F
WILLIAMSBURG*  PTSUNNY   91  75  59 CALM      30.02F HX 102
FRANKLIN*      PTSUNNY   90  70  51 W3        30.02F HX  95
WAKEFIELD      PTSUNNY   90  70  51 VRB5      30.02F HX  95
$$

VAZ020-022-025-037-045-212000-
WESTERN AND SOUTHWEST VIRGINIA

CITY           SKY/WX    TMP DP  RH WIND       PRES   REMARKS
STAUNTON*      CLOUDY    85  64  49 S9        30.09S
HOT SPRINGS VA CLOUDY    73  63  72 NW6       30.25S
LYNCHBURG        N/A    N/A N/A N/A VRB6      30.10F
DANVILLE       MOSUNNY   87  70  56 W7        30.08F
MARTINSVILLE   MOSUNNY   88  70  55 CALM      30.12F
ROANOKE        PTSUNNY   87  64  46 VRB6      30.11F
BLACKSBURG     PTSUNNY   84  70  61 W6        30.18S
DUBLIN*        MOSUNNY   84  65  52 W7        30.18S
MARION*        PTSUNNY   79  68  69 SW10G17   30.23F
HILLSVILLE*    MOSUNNY   80  65  59 W8        30.21S
RICHLANDS*     PTCLDY    79  69  71 SW7       30.23S
WISE*          PTSUNNY   79  68  69 CALM      30.23F THUNDER
ABINGDON*      PTSUNNY   81  70  68 W8        30.21F
$$

MDZ021>025-VAZ099-100-212000-
SOUTHERN MARYLAND AND THE DELMARVA PENINSULA

CITY           SKY/WX    TMP DP  RH WIND       PRES   REMARKS
PATUXENT RIVER MOSUNNY   83  74  74 SE9       30.01F
BAY BRIDGE APT   N/A     84  68  58 CALM      30.01F
LEONARDTOWN    CLOUDY    82  70  65 E3        30.03S
DOVER          MOSUNNY   81  72  74 E9        30.01F
GEORGETOWN     PTSUNNY   81  71  71 E14G22    30.02F
EASTON         MOSUNNY   90  68  48 W5        30.04F
CAMBRIDGE      MOSUNNY   86  66  51 N7        30.00F
SALISBURY      PTSUNNY   85  74  69 SE10      30.01F
OCEAN CITY     MOSUNNY   79  72  79 SE10      30.03F
WALLOPS ISLAND CLOUDY    83  75  77 SE13      30.03S
ACCOMACK*      CLOUDY    82  73  74 SE7       30.01F
$$

NCZ012>017-030>032-212000-
EASTERN NORTH CAROLINA

CITY           SKY/WX    TMP DP  RH WIND       PRES   REMARKS
ELIZABETH CITY MOSUNNY   89  74  60 W6        30.00F HX  98
AHOSKIE*       MOSUNNY   86  71  60 CALM      30.03F
EDENTON*       MOSUNNY   88  74  62 W6        30.02F HX  96
CURRITUCK*     MOSUNNY   92  71  50 NE5       30.01F HX  98
KILL DEVIL HLS MOSUNNY   87  72  59 NW6       30.01S
MANTEO         MOSUNNY   86  73  66 S7        30.02S
CAPE HATTERAS  PTSUNNY   84  76  76 SW6       30.04F
GOLDSBORO      MOSUNNY   91  74  58 NW8       30.02S HX 100
WASHINGTON     MOSUNNY   91  73  56 NW5       30.03S HX  99
GREENVILLE     MOSUNNY   90  75  62 N6        30.05S HX 100
NEW BERN       MOSUNNY   94  74  52 W5        30.03S HX 104
WILMINGTON     MOSUNNY   86  71  60 S13       30.04S
$$

VAZ048-212000-
ELSEWHERE

CITY           SKY/WX    TMP DP  RH WIND       PRES   REMARKS
HARRISBURG PA  PTSUNNY   84  70  62 SE3       29.98F
BALTIMORE      PTSUNNY   85  70  60 S6        29.99F
ANNAPOLIS      SUNNY     81  73  76 SE10      30.00F
ANDREWS AFB    MOSUNNY   88  70  55 W5        30.01F
WILMINGTON DE  CLOUDY    81  71  71 S8        30.02F
PHILADELPHIA   CLOUDY    82  68  62 S7        30.01F
WILDWOOD NJ*   MOSUNNY   79  66  65 SE10      30.05F
ATLANTIC CITY  MOSUNNY   79  64  60 S13       30.03F
HENDERSON NC   PTSUNNY   87  67  49 CALM      30.06F
GREENSBORO     CLOUDY    88  66  48 NW5       30.10F
ROCKY MOUNT    MOSUNNY   90  71  53 VRB3      30.04F HX  96
FAYETTEVILLE   PTSUNNY   94  67  41 NW8       30.04F HX  97
CHARLOTTE      MOSUNNY   93  62  35 VRB5      30.11S
$$

VAZ100-212000-
MARINE

STATION/POSITION TIME  TEMP    WIND        PRES    WAVE   SWELL
                       AIR SEA DIR/SP/G            HT/PER HT/PER
                 (UTC) (F)     (DEG/KT/KT) (MB)    (FT/S) (FT/S)
44066 TX TWR #4  1900   72 74   80/  6/  6 1017.6F   3/ 6   3/ 6
CAPE MAY NJ      1900   76 81  120/ 10/ 13 1016.5F
LEWES DE         1900   77 76  140/  9/ 12 1016.6F
15NM E FENWICK I 1900   75 76              1017.0F   3/ 6
OCEAN-CITY-INLET 1900   78 78  140/  5/ 10 1016.6F
WACHAPREAGUE VA  1900   81 82  150/  6/  9 1016.5S
THOMAS POINT MD  1900   80 78  150/  4/  5 1016.6F
GOOSES REEF MD   1900   80     120/  4/  6 1016.8F
COVE POINT MD    1900   78     180/ 10/ 10 1016.2F
SOLOMONS ISLAND  1900      81                N/A
BISHOPS HEAD MD  1900   81 80  240/  4/  4 1016.2S
PINEY POINT MD   1900          300/  2/  3   N/A
POTOMAC MD       1900   81     140/  4/  6 1015.8F
CAMBRIDGE MD     1900   81 78  330/  7/  9 1016.0R
LEWISETTA VA     1900   81 80   80/  2/  3 1016.0F
RAPPAHANNOCK LGT 1900          290/  1/  2 1017.0S
STINGRAY PT      1900   82     100/  2/  4 1017.2S
YORK RVR RNG VA  1900   81     150/  4/  4 1016.0S
YORKTOWN VA      1900   87 81   10/  1/  3 1016.1S
JAMESTOWN VA     1900   83     320/  6/  6   N/A
DOMINION TERM VA 1900   83     150/  2/  2 1016.6F
KIPTOPEKE VA     1900      83  310/  5/  6   N/A
CHES BAY BRIDGE  1900   80 79   10/  4/  5 1015.9F
CAPE HENRY VA    1900   80     340/  5/  6 1015.3F
CHESAPEAKE LGHT  1800   81     320/  5/  5 1017.8S
WILLOUBY STN VA  1900   84     280/  1/  2 1015.3F
S CRANEY ISL VA  1900          360/  4/  5 1015.9F
CAPE HENRY BUOY  1800      81                N/A     2/ 6
1ST LANDING BUOY 1900   81     360/  4/  4 1016.2F
CAPE CHARLES BUO 1900      79                N/A     2/ 7   2/ 7
OFFSHORE WE BUOY 1900      80                N/A     2/ 7   2/ 7
64NM E OF VA BCH 1900   78 79  120/  2/  2 1016.8F   2/ 9   2/ 9
DUCK PIER NC     1900   85 79  110/  7/  8 1016.0R
44056 DUCK FRF   1900                        N/A     2/ 6
OREGON INLET NC  1900   82 82  190/  8/  9 1016.6R
HATTERAS NC      1900   85 82  160/  5/  7 1017.6S
DIAMOND SHLS NC  1900   81     200/  6/  8 1017.1F   2/ 9   2/ 9
CAPE LOOKOUT NC  1800   84     190/  8/ 11 1017.1F
$$



USA.gov is the U.S. government's official web portal to all federal, state and local government web resources and services.